Location: Unspecified
(0.0000°N, 0.0000°E)
Time: 11:56:21
(UTC+00:00)

Transit 2A Rocket - Visible Passes

Search period start: 26 June 2016 00:00
Search period end: 06 July 2016 00:00
Orbit: 584 x 920 km, 66.7° (Epoch: 26 June)

Date Brightness Start Highest point End Pass type
(mag) Time Alt. Az. Time Alt. Az. Time Alt. Az.
02 Jul 7.6 21:01:40 10° NNW 21:02:33 15° NNW 21:02:33 15° NNW visible
03 Jul 7.0 20:19:51 10° N 20:21:50 20° NNE 20:21:50 20° NNE visible
04 Jul 6.9 19:38:55 10° NNE 19:41:09 16° NE 19:41:09 16° NE visible
04 Jul 7.8 21:20:19 10° NW 21:21:07 14° NW 21:21:07 14° NW visible
05 Jul 6.5 20:37:22 10° NNW 20:40:30 33° NW 20:40:30 33° NW visible
